Wind_Speed
64 66 68 69 71 71 71 70 69 67 65 63 61 58 56 55 55 54 52 51 51 50 50 50 50 50 51 51 52 53 55 55 56 58 61 64 66 67 68 68 69 69 69
58 59 61 64 66 68 69 69 69 68 67 64 62 59 57 56 55 54 53 52 51 51 51 51 51 51 52 54 56 56 57 58 60 63 65 68 69 70 70 70 71 71 72
48 50 52 55 58 61 64 65 67 67 66 65 62 60 58 56 55 54 53 52 51 50 50 51 52 53 55 57 58 61 62 63 65 67 69 70 71 72 72 72 72 73 74
39 40 42 44 47 51 54 56 58 60 61 61 60 58 56 54 54 52 51 50 50 49 50 51 53 55 57 59 61 65 67 68 69 70 70 71 72 73 73 73 73 75 76
31 32 33 36 37 40 43 45 47 50 53 54 54 53 53 51 50 49 49 48 48 48 50 52 55 57 59 62 66 68 69 70 71 71 72 72 73 74 75 76 76 77 78
21 22 24 26 29 30 32 34 36 38 41 44 46 47 47 47 46 46 46 46 46 48 51 54 57 59 62 64 67 69 70 70 71 72 72 73 74 76 77 78 79 79 78
11 10 11 15 18 20 22 24 25 27 31 35 38 39 40 41 42 41 42 43 45 49 53 56 59 60 62 65 67 68 69 71 72 74 75 76 78 79 80 80 80 78 75
8 3 2 7 11 13 15 16 19 22 24 27 30 33 34 35 36 38 40 42 46 50 53 56 57 59 61 64 65 67 69 72 74 77 79 81 82 83 82 79 75 71 68
11 9 7 6 8 10 12 13 15 18 20 22 24 27 29 31 34 36 39 42 45 47 48 51 54 57 60 63 65 68 71 75 78 81 83 84 83 81 76 71 66 63 58
14 13 11 10 9 8 7 8 10 13 15 18 21 23 26 28 31 32 35 38 41 44 48 51 54 57 61 65 69 73 76 79 81 83 83 81 76 70 65 61 56 53 50
13 13 11 10 9 7 5 5 7 10 13 15 18 21 23 25 27 29 32 36 39 43 48 52 56 61 66 71 75 78 80 80 79 76 73 67 62 57 53 50 47 46 44
13 12 11 9 7 5 2 1 3 5 8 11 14 16 19 22 26 29 32 36 40 45 50 56 62 67 71 74 76 77 75 72 68 62 56 51 47 44 41 40 40 40 40
13 12 11 10 9 7 5 4 4 5 8 11 14 17 20 23 26 30 34 39 44 50 56 62 67 70 72 72 71 67 62 55 48 42 38 35 33 33 33 34 35 36 37
12 12 11 10 9 8 8 8 9 11 12 14 16 19 21 24 28 33 38 44 50 56 62 66 68 68 65 62 57 50 43 36 31 28 26 26 27 28 30 31 32 32 33
11 11 11 11 11 11 11 12 13 14 15 16 18 21 24 28 33 38 44 50 55 60 63 64 62 58 53 47 40 33 28 25 23 22 23 24 26 28 29 30 31 31 31
12 13 13 13 13 13 14 15 15 16 17 19 21 24 28 32 38 43 49 53 58 61 60 57 52 47 40 34 30 27 25 24 24 24 25 25 26 27 29 30 30 31 31
14 15 15 15 15 16 17 17 18 19 20 22 24 28 32 36 42 47 52 55 58 57 54 49 43 37 32 29 28 28 27 26 26 26 26 26 27 28 29 30 31 31 32
16 16 17 17 18 18 19 19 20 21 22 25 28 32 36 40 45 49 54 56 55 52 47 41 36 31 29 29 29 28 28 28 27 27 28 28 28 28 29 30 31 32 32
17 18 19 19 20 20 21 21 22 24 26 28 32 36 39 44 48 52 54 54 52 47 41 36 32 30 29 29 30 30 29 29 29 29 29 29 29 29 30 31 31 32 33
19 20 21 21 22 22 23 24 25 27 29 32 35 38 42 46 50 52 53 51 47 42 36 32 31 30 30 31 31 31 31 30 30 30 30 30 30 30 31 32 33 33 33
20 22 23 23 24 25 26 27 28 30 32 34 37 40 44 47 50 51 50 47 42 37 33 31 31 32 32 32 32 32 32 31 31 30 30 30 31 31 32 33 34 34 34
22 23 24 25 26 27 28 29 30 32 34 36 39 42 45 48 50 49 47 43 37 33 31 31 32 32 33 33 33 33 33 33 32 31 31 31 31 32 32 33 34 35 34
23 24 26 27 28 29 30 31 32 33 35 37 40 42 46 48 49 47 44 40 35 31 31 31 32 33 33 34 35 35 34 33 32 31 31 31 31 31 32 32 33 33 33
25 26 27 28 30 31 31 32 33 34 35 38 40 43 46 48 48 46 42 37 33 31 31 31 32 34 35 36 36 36 35 34 32 31 30 30 30 30 31 31 32 32 32
25 27 28 30 31 32 32 33 34 35 36 39 41 44 47 49 48 45 40 36 33 31 32 32 33 35 36 37 37 37 35 34 32 30 29 29 29 30 30 30 31 31 31
26 27 29 30 32 32 33 34 34 35 37 40 43 46 48 49 47 44 39 35 33 33 33 34 35 36 37 37 38 37 35 33 31 30 29 29 28 28 29 29 29 29 30
Wind_Direction
265 260 256 254 252 251 250 249 249 248 248 249 249 250 251 253 255 259 263 266 269 272 275 277 279 280 282 283 285 285 287 288 289 291 293 294 295 296 296 296 296 296 295
268 262 258 254 251 249 248 248 247 247 246 246 247 248 249 251 254 257 261 264 268 271 274 277 278 280 281 283 284 285 287 289 290 292 293 295 295 295 296 296 296 296 296
272 265 259 255 251 249 247 247 246 245 245 245 245 246 247 249 252 256 259 263 268 271 274 276 278 278 279 282 285 287 287 289 291 292 294 295 295 295 296 296 297 297 296
276 268 261 256 252 249 248 247 246 245 245 244 245 246 246 248 251 255 259 263 268 271 274 276 276 276 278 282 284 285 288 289 291 293 294 295 295 295 295 296 297 297 297
282 271 262 255 251 249 247 245 245 244 244 244 244 245 245 247 251 255 259 263 268 271 273 274 275 276 280 282 283 286 288 290 292 293 294 295 295 295 296 296 296 297 297
292 276 263 253 248 245 244 242 241 242 242 242 242 243 244 247 251 255 259 263 267 270 272 274 276 279 282 284 286 288 290 292 293 294 295 295 295 295 296 296 296 297 297
315 288 257 243 236 231 230 229 229 231 234 236 237 239 242 246 251 255 260 264 268 271 274 276 279 282 284 287 289 292 294 295 295 295 295 295 295 295 296 296 297 298 299
10 12 197 201 202 207 209 210 215 220 225 230 234 238 242 247 252 257 262 267 270 274 278 280 282 286 289 291 293 295 296 296 296 296 296 295 295 296 296 297 298 298 299
37 58 87 127 161 176 181 191 204 213 220 227 233 238 244 250 257 263 267 270 275 281 284 287 290 293 295 296 297 297 297 296 296 296 296 296 296 296 297 297 298 299 299
41 51 59 80 100 121 146 173 194 210 222 230 236 245 251 257 266 272 276 280 284 289 293 296 298 299 299 299 299 299 298 297 297 296 296 296 297 297 298 299 299 300 300
43 51 59 71 84 103 129 173 206 225 234 241 250 257 264 270 277 284 288 292 296 299 301 302 303 303 303 302 301 300 299 299 298 297 297 297 298 299 300 301 301 302 303
45 51 58 61 63 78 100 172 234 252 257 264 268 275 283 289 293 297 300 302 304 305 306 306 306 306 305 304 303 303 302 300 299 298 298 298 300 301 303 305 306 308 308
44 48 49 48 47 46 41 19 343 320 308 303 302 302 302 302 304 305 307 309 310 311 311 311 310 309 308 307 307 306 306 305 304 303 304 305 306 308 310 311 312 313 313
34 35 34 31 26 17 3 347 334 324 317 313 310 308 308 309 310 312 314 315 316 316 316 315 314 313 313 312 313 314 314 315 316 317 317 317 317 317 317 317 316 317 317
15 14 11 6 359 352 344 337 329 323 318 315 313 312 313 314 316 318 320 321 321 321 320 319 319 319 320 321 324 326 329 331 331 330 328 325 323 322 322 322 322 322 320
357 356 354 350 346 341 335 330 325 321 318 315 315 315 317 319 321 323 324 325 325 324 324 323 324 325 327 332 336 338 338 336 334 332 330 328 327 326 326 326 326 326 325
345 344 343 340 336 333 329 325 322 319 318 317 318 319 321 323 325 326 327 328 328 327 326 326 327 329 332 335 337 336 335 334 332 331 330 329 329 328 328 327 327 327 327
335 335 334 333 330 327 324 322 319 318 318 319 321 323 324 326 327 329 330 330 329 328 328 328 328 330 332 334 334 334 333 331 330 330 329 329 329 329 329 329 328 328 328
328 329 328 327 325 323 321 319 318 319 320 321 322 324 326 328 330 331 331 330 329 329 328 327 328 329 330 332 332 331 331 330 329 328 329 329 328 329 330 331 331 330 331
320 322 323 322 322 320 320 319 319 321 321 321 323 325 327 329 331 331 331 330 329 327 326 326 327 328 329 330 330 330 330 329 328 327 327 327 327 328 329 330 331 331 332
314 317 319 320 320 319 319 319 319 320 321 322 323 326 328 330 331 331 330 329 328 326 324 324 325 327 328 329 329 329 329 328 327 326 326 326 327 328 329 330 331 332 333
310 313 316 318 319 318 318 318 318 319 321 322 325 327 329 330 331 330 328 327 325 324 322 322 324 326 328 329 329 329 329 328 327 326 325 325 326 327 329 330 331 331 331
308 311 314 316 317 317 317 318 319 320 321 323 325 327 329 330 330 329 327 324 322 321 321 322 323 325 327 328 329 329 329 328 326 325 324 324 325 327 328 328 329 330 332
305 308 311 314 315 316 317 318 319 320 321 323 325 327 329 330 330 328 325 321 317 317 318 320 322 324 325 327 328 328 328 327 326 324 323 323 323 325 326 328 331 332 333
304 307 310 312 314 316 317 318 319 320 322 323 325 327 329 330 329 327 323 317 313 313 315 317 320 321 323 325 326 327 326 325 325 324 322 322 323 325 327 330 332 333 334
303 306 309 312 314 316 317 317 318 320 322 324 326 327 329 330 329 325 320 314 310 310 312 315 317 319 320 323 325 326 326 324 324 323 323 323 324 326 328 331 332 333 335
Height
5625 5624 5626 5628 5631 5634 5639 5644 5649 5655 5660 5666 5671 5675 5679 5681 5683 5685 5687 5687 5687 5687 5686 5684 5682 5680 5677 5674 5671 5667 5663 5659 5655 5651 5645 5639 5633 5627 5622 5616 5611 5605 5599
5602 5602 5604 5607 5610 5614 5619 5625 5631 5637 5644 5650 5656 5661 5665 5669 5671 5674 5675 5676 5676 5676 5674 5673 5670 5668 5665 5662 5658 5653 5649 5644 5640 5635 5629 5623 5616 5610 5604 5599 5593 5586 5579
5583 5583 5584 5587 5591 5595 5601 5607 5614 5621 5628 5635 5642 5648 5652 5656 5660 5663 5664 5665 5666 5665 5663 5661 5659 5656 5652 5648 5644 5639 5634 5629 5623 5618 5613 5606 5599 5592 5586 5580 5574 5566 5558
5568 5568 5569 5572 5575 5580 5585 5592 5599 5607 5614 5622 5629 5635 5641 5645 5649 5652 5654 5655 5655 5654 5652 5650 5647 5643 5638 5634 5630 5625 5619 5613 5606 5601 5595 5588 5582 5573 5567 5562 5556 5547 5538
5558 5557 5557 5560 5564 5569 5574 5581 5588 5595 5603 5611 5618 5625 5631 5635 5639 5642 5644 5645 5644 5643 5641 5638 5634 5629 5625 5620 5615 5609 5603 5596 5589 5583 5577 5570 5563 5555 5548 5542 5535 5528 5518
5552 5549 5550 5552 5556 5561 5567 5573 5580 5587 5595 5602 5609 5616 5622 5627 5630 5633 5634 5634 5633 5632 5629 5625 5621 5617 5612 5606 5600 5593 5586 5579 5571 5565 5559 5551 5543 5535 5528 5521 5513 5506 5499
5551 5548 5547 5548 5552 5557 5562 5568 5575 5582 5589 5596 5603 5609 5614 5619 5622 5623 5624 5624 5623 5621 5617 5613 5608 5603 5597 5591 5585 5577 5569 5560 5553 5546 5539 5530 5523 5515 5508 5500 5491 5482 5474
5555 5551 5549 5549 5551 5556 5560 5566 5572 5579 5586 5592 5599 5604 5608 5611 5614 5615 5615 5614 5613 5610 5605 5600 5595 5589 5583 5576 5569 5561 5552 5543 5534 5525 5517 5508 5500 5491 5484 5477 5469 5462 5454
5561 5557 5555 5554 5555 5558 5562 5567 5573 5579 5585 5591 5595 5600 5603 5605 5607 5606 5606 5604 5601 5598 5593 5588 5582 5575 5568 5561 5553 5545 5536 5525 5514 5503 5493 5484 5476 5467 5460 5455 5448 5442 5438
5567 5564 5562 5561 5562 5564 5568 5572 5577 5582 5586 5590 5593 5596 5598 5599 5599 5598 5597 5594 5591 5587 5581 5575 5568 5561 5553 5544 5535 5526 5516 5505 5494 5482 5470 5460 5452 5445 5439 5435 5430 5425 5419
5574 5571 5570 5569 5570 5572 5574 5577 5580 5583 5586 5588 5590 5592 5593 5593 5592 5590 5588 5585 5581 5575 5569 5562 5554 5545 5536 5525 5514 5504 5492 5482 5471 5459 5449 5440 5433 5427 5422 5418 5414 5409 5404
5579 5578 5576 5576 5576 5577 5578 5580 5582 5583 5585 5586 5587 5587 5587 5586 5585 5582 5579 5575 5570 5564 5557 5548 5539 5528 5517 5504 5492 5480 5468 5457 5447 5438 5431 5424 5419 5414 5410 5406 5402 5397 5391
5584 5583 5581 5581 5580 5580 5581 5582 5582 5583 5583 5583 5583 5582 5581 5580 5577 5574 5570 5565 5558 5551 5542 5532 5521 5509 5496 5483 5470 5458 5447 5437 5429 5423 5417 5413 5409 5406 5402 5398 5393 5388 5382
5588 5586 5585 5584 5583 5583 5582 5582 5582 5581 5581 5580 5579 5577 5575 5573 5570 5565 5560 5553 5546 5536 5525 5514 5501 5489 5476 5464 5452 5441 5432 5425 5419 5414 5410 5407 5404 5400 5396 5392 5387 5381 5376
5590 5588 5586 5585 5584 5583 5582 5581 5580 5579 5577 5576 5574 5572 5569 5565 5561 5556 5549 5541 5532 5521 5509 5497 5484 5472 5461 5451 5441 5432 5426 5420 5416 5412 5408 5404 5399 5395 5390 5385 5380 5374 5369
5590 5588 5586 5585 5583 5582 5580 5579 5577 5575 5573 5571 5568 5565 5562 5557 5551 5545 5537 5528 5518 5506 5495 5483 5472 5461 5452 5444 5436 5430 5424 5419 5414 5410 5405 5401 5396 5390 5385 5379 5374 5368 5362
5589 5587 5585 5583 5581 5579 5577 5575 5573 5571 5568 5565 5562 5558 5554 5548 5542 5534 5525 5515 5505 5494 5483 5472 5463 5455 5447 5440 5434 5428 5422 5417 5412 5407 5402 5396 5391 5386 5380 5374 5368 5362 5356
5588 5586 5583 5581 5579 5576 5574 5571 5569 5566 5563 5559 5555 5550 5545 5539 5532 5523 5514 5504 5493 5483 5473 5465 5457 5450 5443 5437 5431 5425 5419 5414 5408 5403 5397 5392 5387 5381 5375 5369 5363 5357 5350
5585 5583 5581 5578 5575 5573 5570 5567 5563 5560 5556 5552 5547 5542 5536 5529 5521 5513 5503 5493 5483 5474 5466 5459 5452 5446 5440 5434 5428 5422 5416 5410 5404 5399 5393 5387 5382 5376 5370 5364 5358 5351 5344
5582 5580 5577 5574 5571 5568 5565 5561 5557 5554 5549 5545 5540 5534 5527 5520 5512 5503 5494 5484 5475 5467 5460 5454 5448 5442 5436 5430 5424 5418 5412 5406 5400 5394 5388 5383 5377 5371 5365 5358 5352 5346 5339
5578 5575 5573 5569 5566 5563 5559 5555 5551 5547 5542 5538 5532 5526 5519 5511 5503 5494 5485 5476 5468 5461 5455 5449 5443 5437 5431 5425 5419 5413 5407 5401 5395 5389 5383 5377 5371 5365 5359 5353 5346 5339 5333
5573 5570 5567 5564 5560 5557 5553 5549 5545 5540 5535 5530 5524 5517 5510 5503 5494 5485 5477 5469 5461 5455 5449 5443 5438 5432 5426 5420 5413 5407 5401 5395 5389 5384 5378 5372 5366 5360 5354 5347 5341 5335 5328
5568 5565 5562 5558 5554 5550 5546 5542 5538 5533 5528 5522 5516 5509 5502 5494 5486 5477 5469 5461 5455 5449 5443 5438 5432 5426 5420 5414 5408 5402 5396 5390 5384 5378 5372 5367 5361 5355 5349 5343 5337 5330 5323
5561 5559 5555 5552 5548 5544 5540 5535 5530 5525 5520 5515 5508 5502 5494 5486 5478 5469 5461 5454 5448 5443 5437 5432 5426 5420 5414 5408 5402 5396 5390 5384 5378 5372 5367 5361 5356 5351 5345 5338 5332 5325 5318
5555 5552 5549 5545 5541 5537 5532 5528 5523 5518 5513 5507 5501 5494 5486 5478 5469 5461 5454 5447 5441 5436 5431 5426 5420 5414 5408 5402 5396 5390 5384 5378 5372 5367 5362 5356 5351 5345 5339 5333 5327 5321 5314
5548 5545 5542 5538 5534 5529 5525 5520 5515 5510 5505 5499 5493 5486 5478 5470 5461 5453 5446 5440 5434 5429 5424 5419 5413 5408 5402 5396 5390 5383 5378 5372 5366 5361 5356 5351 5346 5340 5335 5329 5323 5317 5311